AZU4188 SBCF-SBKP

Flight info

Callsign AZU4188
Flight time 0h 47m
Altitude 34000
Route ANDEM UZ30 ENTIT
Aircraft A20N/M-SDE2E3FGHIRWXY/LB1

Departure

Time 2026-04-30 18:45
Airport Tancredo Neves International Airport (SBCF)

Arrival

Time 2026-04-30 19:33
Airport Viracopos International Airport (SBKP)
Time Latitude Longitude Altitude Speed Heading
2026-04-30 18:45 -19.77648 -44.19225 11381 ft 350 kts 259°
2026-04-30 18:45 -19.78077 -44.21776 11937 ft 352 kts 259°
2026-04-30 18:45 -19.78506 -44.24339 12522 ft 354 kts 259°
2026-04-30 18:46 -19.78940 -44.26922 13128 ft 356 kts 259°
2026-04-30 18:46 -19.79377 -44.29521 13739 ft 359 kts 259°
2026-04-30 18:46 -19.79818 -44.32138 14286 ft 361 kts 260°
2026-04-30 18:46 -19.80261 -44.34765 14849 ft 363 kts 260°
2026-04-30 18:47 -19.80709 -44.37413 15423 ft 365 kts 260°
2026-04-30 18:47 -19.81158 -44.40079 15839 ft 368 kts 260°
2026-04-30 18:47 -19.81608 -44.42766 16629 ft 371 kts 261°
2026-04-30 18:47 -19.82059 -44.45465 17261 ft 373 kts 261°
2026-04-30 18:48 -19.82514 -44.48191 17920 ft 376 kts 261°
2026-04-30 18:48 -19.82974 -44.50940 18522 ft 380 kts 261°
2026-04-30 18:48 -19.83441 -44.53714 19082 ft 383 kts 261°
2026-04-30 18:48 -19.83910 -44.56511 19648 ft 386 kts 261°
2026-04-30 18:49 -19.84381 -44.59328 20221 ft 389 kts 261°
2026-04-30 18:49 -19.84854 -44.62161 20825 ft 390 kts 261°
2026-04-30 18:49 -19.85326 -44.65005 21391 ft 393 kts 261°
2026-04-30 18:49 -19.85912 -44.67851 21944 ft 397 kts 253°
2026-04-30 18:50 -19.86870 -44.70615 22492 ft 400 kts 250°
2026-04-30 18:50 -19.87874 -44.73384 23052 ft 403 kts 250°
2026-04-30 18:50 -19.88886 -44.76174 23594 ft 406 kts 250°
2026-04-30 18:50 -19.89901 -44.78977 24055 ft 408 kts 250°
2026-04-30 18:51 -19.90923 -44.81804 24505 ft 411 kts 250°
2026-04-30 18:51 -19.91950 -44.84646 24974 ft 413 kts 250°
2026-04-30 18:51 -19.92981 -44.87505 25430 ft 415 kts 250°
2026-04-30 18:51 -19.94015 -44.90373 25874 ft 418 kts 250°
2026-04-30 18:52 -19.95054 -44.93266 26323 ft 420 kts 250°
2026-04-30 18:52 -19.96097 -44.96177 26757 ft 422 kts 250°
2026-04-30 18:52 -19.97148 -44.99101 27194 ft 424 kts 250°
2026-04-30 18:52 -19.98202 -45.02038 27660 ft 426 kts 250°
2026-04-30 18:53 -19.99260 -45.04984 28078 ft 428 kts 250°
2026-04-30 18:53 -20.00329 -45.07952 28493 ft 431 kts 250°
2026-04-30 18:53 -20.01403 -45.10938 28911 ft 434 kts 250°
2026-04-30 18:53 -20.02481 -45.13944 29338 ft 436 kts 250°
2026-04-30 18:54 -20.03560 -45.16961 29748 ft 439 kts 250°
2026-04-30 18:54 -20.04647 -45.20002 30138 ft 441 kts 250°
2026-04-30 18:54 -20.05739 -45.23059 30481 ft 443 kts 250°
2026-04-30 18:54 -20.06834 -45.26128 30827 ft 444 kts 250°
2026-04-30 18:55 -20.07933 -45.29210 31164 ft 446 kts 249°
2026-04-30 18:55 -20.10205 -45.35366 31892 ft 447 kts 244°
2026-04-30 18:55 -20.11771 -45.38168 31998 ft 445 kts 234°
2026-04-30 18:56 -20.16047 -45.42704 32025 ft 425 kts 221°
2026-04-30 18:56 -20.18322 -45.44697 32026 ft 422 kts 221°
2026-04-30 18:57 -20.25130 -45.50626 32027 ft 421 kts 221°
2026-04-30 18:57 -20.29636 -45.54554 32027 ft 421 kts 221°
2026-04-30 18:58 -20.36460 -45.60510 32025 ft 421 kts 221°
2026-04-30 18:59 -20.43209 -45.66432 32030 ft 420 kts 221°
2026-04-30 19:00 -20.52242 -45.74337 32029 ft 420 kts 221°
2026-04-30 19:01 -20.61254 -45.82244 32032 ft 419 kts 221°
2026-04-30 19:02 -20.67998 -45.88176 32032 ft 419 kts 221°
2026-04-30 19:03 -20.76975 -45.96088 32039 ft 418 kts 221°
2026-04-30 19:04 -20.85948 -46.03973 32025 ft 417 kts 222°
2026-04-30 19:05 -20.94880 -46.11868 32022 ft 416 kts 222°
2026-04-30 19:05 -20.99857 -46.15067 32028 ft 423 kts 204°
2026-04-30 19:06 -21.05445 -46.17068 32033 ft 424 kts 201°
2026-04-30 19:06 -21.13846 -46.20042 32037 ft 424 kts 202°
2026-04-30 19:07 -21.22262 -46.22979 32031 ft 424 kts 201°
2026-04-30 19:08 -21.33503 -46.26777 32022 ft 423 kts 201°
2026-04-30 19:09 -21.41916 -46.29634 32016 ft 423 kts 201°
2026-04-30 19:09 -21.44707 -46.30583 31800 ft 418 kts 201°
2026-04-30 19:09 -21.47467 -46.31524 31560 ft 415 kts 201°
2026-04-30 19:10 -21.52942 -46.33399 31091 ft 412 kts 201°
2026-04-30 19:10 -21.58392 -46.35262 30637 ft 410 kts 201°
2026-04-30 19:11 -21.61105 -46.36187 30405 ft 408 kts 201°
2026-04-30 19:11 -21.66466 -46.38023 29644 ft 401 kts 202°
2026-04-30 19:11 -21.69065 -46.38947 29194 ft 396 kts 202°
2026-04-30 19:12 -21.71662 -46.39900 28730 ft 392 kts 203°
2026-04-30 19:12 -21.74229 -46.40858 28267 ft 388 kts 203°
2026-04-30 19:12 -21.76765 -46.41808 27824 ft 385 kts 203°
2026-04-30 19:13 -21.81783 -46.43673 26959 ft 378 kts 202°
2026-04-30 19:13 -21.86715 -46.45481 26115 ft 372 kts 202°
2026-04-30 19:13 -21.88877 -46.46273 25724 ft 370 kts 202°
2026-04-30 19:14 -21.91301 -46.47163 25278 ft 368 kts 202°
2026-04-30 19:14 -21.93721 -46.48053 24839 ft 367 kts 202°
2026-04-30 19:14 -21.96134 -46.48943 24370 ft 366 kts 202°
2026-04-30 19:14 -21.98539 -46.49831 23912 ft 365 kts 202°
2026-04-30 19:15 -22.00943 -46.50716 23387 ft 365 kts 202°
2026-04-30 19:15 -22.05623 -46.52439 22453 ft 361 kts 202°
2026-04-30 19:15 -22.08076 -46.53344 21971 ft 359 kts 202°
2026-04-30 19:16 -22.10435 -46.54216 21510 ft 358 kts 202°
2026-04-30 19:16 -22.12782 -46.55085 21061 ft 356 kts 202°
2026-04-30 19:16 -22.17439 -46.56806 20151 ft 352 kts 202°
2026-04-30 19:17 -22.19751 -46.57657 19699 ft 350 kts 202°
2026-04-30 19:17 -22.24305 -46.59335 18824 ft 346 kts 202°
2026-04-30 19:17 -22.26579 -46.60175 18386 ft 345 kts 201°
2026-04-30 19:18 -22.29600 -46.61295 17766 ft 342 kts 201°
2026-04-30 19:18 -22.33330 -46.62679 17059 ft 335 kts 201°
2026-04-30 19:18 -22.35493 -46.63479 16656 ft 331 kts 201°
2026-04-30 19:19 -22.37693 -46.64292 16243 ft 328 kts 200°
2026-04-30 19:19 -22.39800 -46.65110 15842 ft 324 kts 206°
2026-04-30 19:19 -22.42821 -46.67403 15185 ft 315 kts 228°
2026-04-30 19:20 -22.44605 -46.69832 14678 ft 310 kts 233°
2026-04-30 19:20 -22.45909 -46.71676 14341 ft 310 kts 233°
2026-04-30 19:20 -22.48541 -46.75387 13575 ft 310 kts 232°
2026-04-30 19:21 -22.49426 -46.76636 13291 ft 309 kts 232°
2026-04-30 19:21 -22.52020 -46.80300 12493 ft 305 kts 232°
2026-04-30 19:22 -22.54584 -46.83921 11674 ft 301 kts 232°
2026-04-30 19:22 -22.58416 -46.89351 10195 ft 310 kts 232°
2026-04-30 19:23 -22.62170 -46.94679 9599 ft 292 kts 232°
2026-04-30 19:24 -22.64612 -46.98150 8965 ft 287 kts 232°
2026-04-30 19:24 -22.65798 -46.99837 8706 ft 285 kts 232°
2026-04-30 19:24 -22.68190 -47.03236 8188 ft 283 kts 232°
2026-04-30 19:25 -22.71745 -47.08300 7416 ft 279 kts 232°
2026-04-30 19:26 -22.74090 -47.11643 6909 ft 278 kts 232°
2026-04-30 19:26 -22.76414 -47.14953 6499 ft 267 kts 232°
2026-04-30 19:26 -22.77501 -47.16504 6394 ft 251 kts 232°
2026-04-30 19:27 -22.79488 -47.19339 6184 ft 223 kts 232°
2026-04-30 19:27 -22.81285 -47.21896 6004 ft 208 kts 228°
2026-04-30 19:28 -22.82363 -47.22931 5860 ft 208 kts 217°
2026-04-30 19:28 -22.84632 -47.24820 5591 ft 205 kts 217°
2026-04-30 19:29 -22.86914 -47.26676 5272 ft 206 kts 209°
2026-04-30 19:29 -22.88253 -47.27190 5065 ft 204 kts 188°
2026-04-30 19:30 -22.92028 -47.25606 4528 ft 205 kts 130°
2026-04-30 19:30 -22.93742 -47.23215 4033 ft 194 kts 129°
2026-04-30 19:31 -22.95341 -47.20984 3541 ft 179 kts 130°
2026-04-30 19:31 -22.96075 -47.19960 3365 ft 163 kts 130°
2026-04-30 19:31 -22.97381 -47.18139 2961 ft 148 kts 130°
2026-04-30 19:32 -22.98009 -47.17264 2761 ft 146 kts 130°
2026-04-30 19:32 -22.98630 -47.16400 2594 ft 146 kts 130°
2026-04-30 19:32 -22.99245 -47.15535 2368 ft 143 kts 131°
2026-04-30 19:32 -22.99853 -47.14688 2196 ft 141 kts 130°
2026-04-30 19:33 -23.00415 -47.13903 2151 ft 116 kts 128°
2026-04-30 19:33 -23.00723 -47.13480 2154 ft 16 kts 125°
2026-04-30 19:33 -23.00761 -47.13486 2155 ft 9 kts 276°
2026-04-30 19:33 -23.00751 -47.13554 2153 ft 8 kts 279°
2026-04-30 19:34 -23.00744 -47.13606 2156 ft 7 kts 276°
2026-04-30 19:34 -23.00736 -47.13685 2154 ft 14 kts 277°
2026-04-30 19:34 -23.00704 -47.13928 2154 ft 18 kts 290°
2026-04-30 19:35 -23.00648 -47.14054 2154 ft 19 kts 304°
2026-04-30 19:35 -23.00568 -47.14169 2156 ft 19 kts 309°
2026-04-30 19:35 -23.00486 -47.14282 2152 ft 19 kts 307°
2026-04-30 19:35 -23.00405 -47.14396 2156 ft 19 kts 308°
2026-04-30 19:36 -23.00325 -47.14507 2153 ft 17 kts 308°
2026-04-30 19:36 -23.00268 -47.14594 2155 ft 10 kts 284°
2026-04-30 19:36 -23.00352 -47.14702 2152 ft 11 kts 217°
2026-04-30 19:37 -23.00403 -47.14746 2152 ft 7 kts 219°
2026-04-30 19:37 -23.00427 -47.14767 2153 ft 3 kts 219°
2026-04-30 19:37 -23.00443 -47.14781 2152 ft 2 kts 218°
2026-04-30 19:37 -23.00452 -47.14788 2150 ft 0 kts 217°